Temperature
6 5 5 5 5 4 4 3 3 2 3 3 4 4 3 3 3 2 2 2 2 2 2 2 2 2 2 2 2 2 2 2 2 2 2 2 2 2
5 5 5 4 4 4 4 3 3 2 2 3 3 3 3 3 2 2 2 2 2 2 2 2 2 2 1 1 1 1 1 1 1 1 1 1 1 1
5 4 4 4 4 4 3 3 3 2 2 2 2 2 2 2 2 2 2 1 1 1 1 1 1 1 1 1 1 1 1 1 1 1 1 1 1 1
4 4 4 4 3 3 3 3 2 2 2 2 2 2 2 2 1 1 1 1 1 1 1 0 0 0 0 0 0 0 -0 -0 -0 0 0 0 0 0
4 3 3 3 3 3 2 2 2 2 1 1 1 1 1 1 1 1 1 1 0 0 0 -0 -0 -0 -0 -0 -1 -1 -1 -1 -1 -1 -1 -1 -1 -0
3 3 3 3 2 2 2 2 1 1 1 0 0 0 0 0 -0 -0 0 0 -0 -0 -0 -1 -1 -1 -1 -1 -1 -1 -1 -1 -2 -1 -1 -1 -1 -1
3 3 2 2 2 2 1 1 1 0 0 -0 -0 -0 -0 -1 -1 -1 -1 -1 -1 -1 -1 -1 -1 -1 -1 -2 -2 -2 -2 -2 -2 -2 -2 -2 -2 -2
2 2 2 2 1 1 1 0 0 -0 -1 -1 -1 -1 -1 -1 -2 -2 -2 -2 -2 -2 -2 -2 -2 -2 -2 -2 -2 -2 -3 -3 -3 -3 -3 -3 -3 -3
2 1 1 1 1 1 0 0 -0 -1 -1 -2 -2 -2 -2 -2 -2 -2 -3 -3 -3 -3 -3 -3 -2 -2 -2 -3 -3 -3 -3 -3 -3 -3 -3 -4 -3 -3
1 1 1 1 0 -0 -1 -1 -1 -1 -1 -2 -2 -2 -2 -2 -3 -3 -3 -4 -4 -4 -4 -4 -3 -3 -3 -3 -3 -3 -4 -4 -4 -4 -4 -4 -4 -4
1 1 0 -0 -0 -1 -1 -1 -1 -1 -2 -2 -2 -2 -3 -3 -3 -4 -4 -4 -4 -4 -4 -5 -4 -4 -4 -4 -4 -4 -4 -4 -5 -5 -5 -5 -5 -4
0 0 -0 -1 -1 -2 -2 -2 -2 -2 -2 -3 -3 -3 -3 -3 -3 -4 -4 -5 -5 -5 -5 -5 -5 -5 -5 -4 -4 -5 -5 -5 -5 -5 -5 -5 -5 -5
-1 -1 -1 -1 -2 -2 -2 -3 -3 -3 -3 -3 -3 -3 -3 -4 -4 -4 -5 -5 -5 -5 -5 -6 -6 -6 -6 -6 -5 -5 -5 -5 -5 -5 -5 -5 -5 -5
-1 -2 -2 -2 -2 -2 -3 -3 -3 -4 -4 -4 -4 -4 -4 -4 -4 -5 -5 -5 -6 -6 -6 -6 -6 -6 -7 -7 -6 -6 -6 -6 -6 -6 -6 -6 -5 -5
-2 -2 -2 -3 -3 -3 -3 -3 -4 -4 -4 -4 -4 -4 -5 -5 -5 -5 -5 -5 -6 -6 -6 -6 -6 -7 -7 -7 -7 -6 -6 -6 -6 -6 -6 -6 -6 -6
-2 -3 -3 -3 -3 -3 -4 -4 -4 -5 -5 -5 -5 -5 -5 -5 -5 -6 -6 -6 -6 -6 -6 -6 -7 -7 -7 -7 -7 -7 -7 -7 -6 -6 -6 -6 -6 -6
-3 -3 -3 -4 -4 -4 -4 -4 -5 -5 -5 -5 -6 -5 -5 -6 -6 -6 -6 -6 -7 -6 -6 -7 -7 -7 -7 -7 -7 -7 -7 -7 -7 -7 -7 -6 -6 -6
-4 -4 -4 -4 -5 -5 -5 -5 -5 -5 -5 -6 -6 -6 -6 -6 -6 -6 -7 -7 -7 -7 -7 -7 -7 -7 -7 -7 -7 -7 -7 -7 -7 -7 -7 -7 -6 -6
-4 -4 -4 -5 -5 -6 -6 -6 -6 -6 -6 -6 -6 -6 -6 -6 -7 -7 -7 -7 -7 -7 -7 -7 -8 -8 -8 -8 -7 -7 -7 -7 -7 -7 -7 -7 -7 -6
-5 -5 -5 -5 -6 -6 -6 -6 -6 -6 -6 -6 -6 -7 -7 -7 -7 -7 -7 -7 -7 -8 -8 -8 -8 -8 -8 -8 -8 -8 -8 -8 -8 -8 -8 -7 -7 -7
-5 -5 -5 -6 -6 -6 -6 -6 -7 -7 -7 -7 -7 -7 -7 -7 -7 -7 -8 -8 -8 -8 -8 -8 -8 -8 -9 -9 -9 -8 -8 -8 -8 -8 -8 -8 -8 -7
-5 -6 -6 -6 -6 -6 -7 -7 -7 -7 -7 -7 -7 -7 -7 -7 -7 -8 -8 -8 -8 -8 -8 -8 -8 -9 -9 -9 -9 -8 -8 -8 -8 -8 -8 -8 -9 -8
-6 -6 -6 -6 -6 -7 -7 -7 -7 -7 -7 -7 -7 -7 -7 -8 -8 -8 -8 -8 -8 -8 -9 -9 -9 -9 -9 -9 -9 -9 -8 -8 -8 -8 -8 -8 -8 -8
Wind_Speed
3 3 2 2 2 3 3 3 3 4 4 4 3 3 4 6 9 9 9 11 12 12 12 12 12 12 13 13 13 13 13 13 13 13 13 13 13 14
2 3 3 2 2 2 3 3 4 5 5 4 4 4 4 7 10 10 10 12 13 13 13 13 13 13 13 13 13 13 13 14 13 13 13 13 14 14
3 3 4 3 3 3 3 3 4 4 7 6 4 4 4 6 8 9 10 10 11 13 14 14 13 13 13 14 14 13 14 14 14 14 14 13 14 14
4 4 4 3 4 3 3 4 4 5 6 9 6 4 5 5 6 6 7 9 10 13 14 15 14 14 14 15 14 14 14 13 13 13 13 13 14 14
5 5 5 5 5 4 5 5 5 5 5 6 8 5 4 4 5 5 6 6 9 11 13 14 14 15 15 15 14 14 13 13 13 13 13 13 13 14
5 6 6 6 7 6 5 6 5 5 5 6 7 6 5 5 4 5 6 4 6 7 11 12 13 15 15 15 15 14 14 14 13 13 13 13 13 14
5 6 6 8 9 8 6 6 5 5 5 6 7 7 6 5 5 4 6 6 6 5 5 6 7 7 10 13 14 14 14 14 13 13 13 14 13 13
6 6 6 8 10 12 13 12 10 8 7 7 7 8 9 7 6 5 6 6 6 3 3 5 4 6 7 9 14 15 15 14 14 13 13 13 13 13
6 6 6 7 9 6 10 13 13 15 14 10 10 10 9 7 6 7 7 7 8 4 3 6 4 6 7 11 15 15 14 14 13 13 13 13 13 13
6 7 7 7 7 8 7 7 8 9 11 9 9 10 9 8 8 8 9 8 7 5 4 6 5 5 6 7 13 14 14 14 14 13 14 14 13 13
6 6 7 7 12 14 9 8 9 9 12 15 16 15 17 16 12 6 5 6 8 6 4 4 4 4 4 5 8 11 12 13 13 13 13 13 13 12
5 6 10 11 13 14 8 7 10 10 8 9 10 12 11 12 14 8 6 7 7 6 4 4 3 2 4 3 3 5 6 9 11 12 12 12 12 8
6 5 6 13 15 15 13 9 12 12 8 8 7 7 6 6 6 7 7 6 7 7 4 3 3 3 4 4 3 3 4 4 5 8 10 12 12 10
6 6 7 14 15 16 13 13 16 14 6 6 7 7 6 6 6 6 7 8 8 9 7 6 4 4 5 6 5 3 3 4 5 5 6 9 11 12
6 10 13 15 14 11 13 15 13 7 6 7 8 7 6 6 5 4 5 6 6 7 8 7 6 5 5 6 6 5 4 4 4 4 5 5 5 5
6 9 13 13 11 11 11 9 6 6 7 7 7 7 5 4 5 4 4 4 4 5 5 7 7 6 6 7 7 7 5 4 3 4 5 6 6 6
6 5 4 5 5 5 5 6 5 6 7 6 6 6 6 6 5 4 4 4 5 5 4 3 5 6 7 7 7 8 7 6 6 5 5 7 6 6
8 5 6 6 7 7 7 6 6 6 6 6 6 6 6 6 5 4 4 4 5 5 4 3 2 2 3 5 9 8 7 6 5 5 5 6 8 6
6 5 6 6 7 6 6 7 7 6 5 6 6 6 5 5 5 5 4 4 4 5 4 3 3 3 4 5 4 7 6 5 4 5 5 5 7 7
4 6 6 7 6 6 6 6 6 6 5 5 5 5 5 5 5 5 4 5 4 4 4 3 4 4 6 5 4 4 7 6 5 5 5 5 7 10
6 6 6 6 6 6 6 6 6 5 5 5 5 5 4 4 5 5 5 6 5 4 5 5 5 6 3 2 4 5 4 7 8 6 5 5 6 5
6 6 6 6 6 6 5 5 5 5 5 5 5 4 4 4 5 5 5 4 4 4 5 4 3 3 2 4 6 6 6 6 8 11 12 10 5 4
6 6 6 6 6 5 5 5 5 5 5 5 4 4 4 4 4 4 5 4 4 4 4 4 3 3 3 4 5 5 7 7 5 5 6 10 14 17
Wind_Direction
224 224 230 240 229 226 214 204 213 268 281 261 265 264 271 285 292 292 289 294 298 299 300 302 302 302 302 302 304 306 308 309 308 307 308 309 310 313
226 231 244 249 248 238 229 227 217 231 263 257 250 263 277 286 288 286 283 290 292 293 294 296 296 296 296 297 298 301 303 303 303 302 303 304 305 306
246 238 248 247 247 249 239 235 235 228 259 276 258 261 264 271 285 282 280 280 283 287 290 292 293 293 295 294 293 295 297 298 298 298 298 299 300 301
249 247 254 255 250 249 241 243 244 234 244 273 281 271 260 261 266 273 281 279 277 283 286 287 288 291 292 291 290 291 293 293 294 294 294 296 297 299
241 243 251 250 258 257 249 250 252 255 242 259 277 274 268 267 272 274 272 274 278 282 285 286 287 290 291 290 289 290 292 290 290 290 291 292 294 296
244 243 245 242 248 253 257 252 253 255 252 258 272 277 272 266 261 272 282 270 273 280 281 282 285 288 289 288 288 288 289 288 286 286 287 287 289 291
253 249 248 252 257 260 262 254 248 254 259 264 271 278 276 270 265 261 274 283 273 259 269 274 281 284 286 285 286 286 284 282 281 282 285 287 287 288
257 260 260 264 269 275 276 272 262 257 257 261 266 266 271 265 265 262 269 282 284 249 248 271 258 266 274 274 279 282 279 278 280 282 284 284 284 286
251 258 270 270 277 267 275 279 276 273 269 263 261 262 265 260 259 265 260 260 264 253 251 274 260 265 272 276 279 278 277 278 279 282 283 282 282 284
250 250 257 266 267 271 266 269 268 269 270 269 258 259 257 253 246 255 261 265 264 252 228 263 265 263 275 277 278 277 278 278 280 281 284 284 284 285
256 252 256 261 275 281 278 273 278 277 278 274 271 270 269 270 267 264 259 267 276 267 219 238 260 269 271 268 274 280 283 282 281 282 284 285 286 287
269 262 269 273 278 282 274 266 275 280 276 278 277 276 272 270 269 255 244 256 270 270 223 219 247 269 284 265 262 282 289 286 287 289 291 292 291 294
271 270 267 280 284 286 285 273 274 282 278 271 269 267 265 261 257 247 236 237 252 259 231 211 239 240 250 277 277 259 261 271 286 289 290 290 290 290
268 269 273 284 287 288 288 283 286 290 281 275 272 270 266 262 255 249 243 239 241 250 243 227 239 243 254 270 274 267 260 264 263 268 276 285 290 289
270 276 283 287 290 289 285 288 291 287 277 273 271 268 259 254 253 254 251 250 254 251 242 235 234 242 246 258 267 269 279 269 255 257 269 275 276 281
279 281 287 288 288 286 287 288 279 271 272 270 271 270 263 254 252 249 257 259 267 267 241 232 230 232 248 256 260 267 260 258 260 260 269 273 272 267
288 284 282 287 282 281 279 273 271 272 274 264 264 268 267 262 258 249 252 257 257 264 266 247 237 240 244 251 260 260 260 258 258 263 271 277 272 265
291 281 281 281 281 284 284 283 276 270 266 263 263 261 263 260 260 253 249 254 259 260 262 261 263 285 274 257 238 252 256 259 262 259 258 272 280 274
282 273 275 278 280 280 280 279 280 274 266 262 262 259 258 257 255 254 249 250 256 260 260 252 246 249 266 278 262 228 239 260 268 267 258 259 273 279
265 270 274 276 276 276 276 277 279 279 271 265 259 255 252 254 253 252 249 247 252 260 261 250 235 234 243 257 266 266 248 248 256 268 275 275 274 280
271 270 271 272 271 271 273 273 272 275 273 267 261 254 251 249 251 249 248 251 257 254 253 256 250 254 256 248 268 272 268 255 252 257 267 281 287 287
269 270 272 271 269 268 270 272 272 271 271 267 262 257 251 247 248 247 246 248 248 247 255 265 265 260 231 242 262 275 287 291 281 274 264 251 249 256
268 268 269 270 267 266 265 265 265 268 266 264 261 257 252 252 249 246 244 242 243 250 259 270 272 257 252 249 260 274 281 289 295 295 285 274 265 265
Height
1508 1508 1508 1508 1507 1506 1506 1505 1504 1500 1496 1496 1496 1496 1495 1493 1491 1489 1487 1486 1484 1482 1480 1478 1477 1475 1473 1471 1470 1468 1466 1465 1463 1462 1461 1460 1459 1457
1505 1504 1504 1504 1503 1502 1501 1501 1499 1497 1493 1491 1491 1491 1489 1488 1486 1484 1482 1480 1479 1477 1475 1473 1471 1470 1468 1466 1464 1463 1461 1459 1458 1457 1456 1454 1453 1453
1501 1500 1500 1499 1499 1498 1497 1496 1495 1493 1489 1485 1486 1485 1484 1482 1481 1479 1477 1475 1473 1471 1469 1468 1466 1464 1462 1461 1459 1457 1456 1454 1452 1451 1450 1449 1448 1447
1497 1496 1495 1495 1494 1493 1492 1491 1489 1488 1485 1481 1479 1479 1478 1477 1475 1473 1471 1469 1467 1465 1464 1462 1460 1458 1456 1455 1453 1452 1450 1448 1447 1445 1444 1443 1442 1442
1492 1491 1490 1489 1488 1488 1486 1485 1484 1482 1480 1477 1473 1473 1471 1470 1468 1466 1465 1463 1461 1459 1457 1455 1454 1452 1450 1449 1447 1445 1444 1442 1441 1439 1438 1437 1436 1436
1487 1486 1485 1484 1483 1482 1480 1479 1478 1476 1474 1471 1468 1466 1465 1464 1462 1460 1457 1456 1454 1453 1451 1449 1448 1446 1444 1443 1441 1439 1438 1436 1435 1434 1432 1432 1431 1430
1482 1481 1480 1479 1478 1476 1475 1473 1472 1470 1468 1465 1463 1461 1459 1458 1456 1454 1451 1449 1447 1446 1444 1443 1441 1439 1438 1436 1435 1433 1431 1430 1429 1428 1427 1426 1425 1424
1476 1475 1475 1473 1472 1470 1469 1467 1466 1464 1461 1459 1457 1455 1453 1452 1450 1448 1446 1443 1440 1439 1437 1435 1435 1432 1431 1430 1428 1427 1425 1424 1423 1422 1421 1420 1419 1418
1471 1470 1468 1467 1466 1464 1462 1461 1459 1457 1456 1454 1451 1448 1447 1445 1444 1441 1440 1437 1434 1433 1431 1428 1427 1425 1425 1423 1422 1420 1419 1418 1417 1416 1415 1414 1413 1412
1466 1464 1462 1461 1459 1457 1455 1453 1451 1450 1449 1447 1444 1442 1440 1439 1437 1435 1433 1430 1428 1427 1425 1422 1420 1419 1417 1416 1415 1414 1413 1412 1411 1410 1409 1408 1407 1406
1459 1458 1456 1454 1453 1451 1449 1446 1444 1442 1441 1439 1437 1435 1433 1432 1431 1429 1426 1424 1420 1419 1419 1416 1413 1412 1410 1409 1409 1408 1407 1406 1405 1403 1402 1402 1401 1400
1453 1452 1450 1448 1446 1444 1442 1440 1437 1434 1433 1430 1429 1427 1426 1424 1423 1422 1420 1418 1415 1412 1411 1411 1408 1407 1404 1402 1402 1402 1401 1400 1399 1398 1397 1396 1395 1394
1446 1444 1443 1441 1439 1438 1436 1433 1430 1428 1425 1423 1420 1419 1417 1416 1415 1414 1413 1411 1409 1407 1406 1405 1403 1402 1401 1397 1396 1396 1395 1394 1393 1392 1391 1390 1389 1388
1440 1438 1436 1434 1432 1430 1428 1426 1424 1421 1418 1415 1413 1411 1410 1409 1408 1406 1405 1404 1403 1401 1400 1399 1398 1396 1395 1392 1390 1389 1389 1388 1387 1386 1385 1384 1383 1382
1434 1431 1429 1427 1425 1423 1421 1419 1417 1414 1411 1409 1406 1405 1404 1402 1401 1399 1398 1397 1396 1394 1393 1393 1392 1391 1390 1388 1385 1384 1383 1382 1381 1380 1379 1378 1377 1376
1427 1425 1423 1420 1418 1416 1414 1412 1410 1408 1405 1402 1400 1398 1397 1396 1394 1393 1391 1390 1389 1387 1387 1387 1386 1385 1384 1382 1381 1379 1378 1377 1375 1375 1373 1372 1372 1371
1420 1418 1416 1413 1411 1409 1407 1405 1403 1401 1398 1396 1394 1392 1391 1389 1388 1387 1386 1385 1383 1382 1381 1381 1380 1379 1378 1377 1375 1374 1373 1371 1371 1369 1368 1366 1366 1365
1415 1412 1409 1407 1405 1402 1400 1398 1396 1394 1392 1390 1388 1387 1385 1384 1382 1382 1381 1380 1378 1377 1376 1375 1375 1374 1373 1371 1371 1369 1368 1367 1366 1365 1363 1361 1359 1359
1408 1406 1404 1401 1399 1397 1395 1392 1390 1388 1387 1385 1383 1382 1380 1379 1377 1376 1375 1374 1373 1372 1371 1371 1370 1369 1368 1366 1365 1365 1363 1362 1361 1359 1358 1356 1354 1353
1402 1400 1398 1396 1393 1391 1389 1387 1385 1383 1381 1379 1378 1376 1375 1374 1373 1372 1371 1370 1369 1368 1367 1366 1366 1365 1364 1363 1361 1360 1360 1358 1356 1354 1353 1351 1349 1348
1396 1394 1392 1390 1388 1386 1384 1381 1379 1378 1376 1374 1373 1372 1370 1369 1368 1367 1366 1365 1364 1363 1362 1362 1362 1361 1360 1359 1357 1354 1354 1354 1352 1350 1348 1346 1344 1342
1390 1388 1386 1384 1382 1380 1378 1376 1374 1372 1371 1369 1368 1367 1366 1365 1364 1363 1362 1361 1360 1359 1358 1358 1357 1356 1356 1354 1352 1351 1349 1348 1347 1346 1344 1343 1340 1337
1384 1383 1381 1379 1377 1375 1373 1371 1369 1368 1366 1365 1364 1362 1361 1360 1359 1358 1357 1357 1356 1355 1354 1353 1353 1352 1351 1350 1348 1346 1345 1343 1342 1340 1339 1338 1336 1334